[[{"header":{"parameterUnit":"m.s-1","parameterCategory":1,"la1":30.2991,"la2":30.254,"lo1":-89.0895,"lo2":-89.0444,"dy":0.0017,"dx":0.0017,"nx":28,"ny":28,"refTime":"2025-07-09T21:00:00:Z","depth":0,"parameterNumber":2,"parameterNumberName":"U-component_of_WINDS"},"data":[0,0,0,0,0,0,0,0,0,0,0,0,0,0,0,0,0,0,0,0,0,0,0,0,0,0,0,0,0,0,0,0,0,0,0,0,0,0,0,0,0,0,0,0,0,0,0,0,0,0,0,0,0,0,0,0,0,0,3.5276,3.5277,0,3.5421,3.5423,3.5424,3.5371,3.5368,3.5365,3.5362,3.5514,3.5521,3.5528,0,0,0,0,0,0,0,0,0,0,0,0,0,3.4955,3.4961,3.5276,3.5277,3.5279,3.5421,3.5423,3.5425,3.5372,3.5368,3.5364,3.536,3.5512,3.552,3.5529,0,0,0,0,0,0,0,0,0,0,0,0,0,3.5097,3.4963,3.5275,3.527,3.5271,3.542,3.5423,3.5425,3.5373,3.5368,3.5363,3.5358,3.5509,3.5519,3.553,3.5694,0,0,3.5563,3.5567,0,0,0,0,0,0,0,0,3.5089,3.5109,3.5269,3.5271,3.5272,3.5373,3.5366,3.5516,3.5374,3.5334,3.5362,3.5356,3.5471,3.5485,3.5523,3.5702,3.5708,3.5563,3.557,3.5575,3.5578,0,0,0,0,0,0,0,3.5079,3.5102,3.5333,3.5271,3.5273,3.5261,3.5276,3.5394,3.5429,3.5337,3.5334,3.5352,3.5471,3.5513,3.5526,3.571,3.5563,3.5573,3.5579,3.5583,3.6032,3.6037,0,0,0,0,0,0,3.5068,3.5094,3.5329,3.5338,3.5166,3.5271,3.5287,3.5346,3.5427,3.5435,3.5356,3.5349,3.5497,3.5514,3.5531,3.573,3.5574,3.5584,3.5591,3.6026,3.6033,3.6039,0,0,0,0,0,0,3.5062,3.509,3.5323,3.5215,3.5244,3.5282,3.5348,3.5351,3.5393,3.5441,3.5447,3.5392,3.5494,3.5516,3.5654,3.5734,3.5589,3.5599,3.602,3.6028,3.6036,3.6128,0,0,0,0,0,0,3.5053,3.5088,3.515,3.5217,3.525,3.5443,3.5352,3.5357,3.5411,3.5403,3.5477,3.5484,3.5492,3.5639,3.5665,3.5747,3.5607,3.6013,3.6023,3.6033,3.6118,3.6138,3.6156,0,0,0,0,0,3.5041,3.5171,3.5153,3.5182,3.5328,3.5447,3.5466,3.5471,3.5417,3.5481,3.5512,3.5482,3.5721,3.5653,3.5682,3.5768,3.6008,3.602,3.6032,3.611,3.6134,3.6155,0,0,0,0,0,0,3.5114,3.518,3.5161,3.5316,3.5376,3.5438,3.5518,3.5498,3.5576,3.5565,3.5569,3.5586,3.5728,3.5762,3.5685,3.5932,3.5856,3.5875,3.5905,3.5929,3.5948,3.5937,3.5616,0,0,0,0,0,3.5147,3.5238,3.529,3.5422,3.5453,3.5481,3.5533,3.5531,3.5595,3.562,3.5661,3.5725,3.5814,3.5873,3.5958,3.6122,3.6138,3.6196,3.6215,3.623,3.6247,3.6336,3.6363,3.6079,3.6079,3.6079,0,0,3.5219,3.5266,3.5323,3.5438,3.5484,3.5579,3.5503,3.5605,3.5676,3.5636,3.5769,3.5801,3.5872,3.6024,3.6093,3.6056,3.6328,3.6246,3.6258,3.6266,3.6352,3.6379,3.6402,3.6088,3.6086,3.6085,0,0,3.5397,3.5441,3.5555,3.5603,3.5674,3.5692,3.5719,3.5784,3.5804,3.5937,3.5909,3.5993,3.6147,3.6199,3.6245,3.6442,3.6418,3.647,3.6569,3.6657,3.6679,3.6699,3.677,3.6795,3.6486,3.6486,3.6486,0,3.5477,3.5616,3.5617,3.5723,3.5774,3.5741,3.5858,3.5905,3.6001,3.6038,3.5995,3.6187,3.6233,3.6396,3.6444,3.6482,3.6515,3.6462,3.6675,3.6695,3.6714,3.6782,3.6809,3.6492,3.6491,3.6491,3.649,0,3.5712,3.5809,3.5893,3.5985,3.6046,3.6157,3.6175,3.6237,3.623,3.6252,3.6388,3.6441,3.6536,3.6575,3.657,3.6738,3.6713,3.6673,3.6598,3.6747,3.6811,3.6837,3.6501,3.6498,3.6497,3.6495,0,0,3.5941,3.6031,3.6062,3.6104,3.6179,3.6255,3.6364,3.6456,3.6509,3.6576,3.6669,3.6799,3.6762,3.6815,3.6815,3.6892,3.7045,3.6842,3.6844,3.6879,3.7235,3.7266,3.7296,3.7028,3.7033,3.7037,3.7229,0,3.6126,3.6316,3.632,3.6495,3.6586,3.6555,3.665,3.6707,3.673,3.6811,3.6837,3.693,3.6874,3.6905,3.6979,3.7011,3.7117,3.6997,3.7116,3.712,3.71,3.7329,3.7362,3.754,3.7254,3.7258,3.7261,0,3.6368,3.6441,3.6625,3.6687,3.6725,3.681,3.6895,3.6972,3.7036,3.7048,3.7107,3.7095,3.7207,3.7127,3.7282,3.72,3.7249,3.7272,3.7279,3.7291,3.7201,3.7349,3.7597,3.7625,3.7301,3.7298,3.7295,0,3.6518,3.6663,3.6791,3.6828,3.6903,3.6964,3.6998,3.7057,3.7112,3.7186,3.7222,3.7309,3.7357,3.7424,3.7437,3.7377,3.7593,3.7513,3.7607,3.7607,3.7655,3.7652,3.7916,3.7685,3.7684,3.7684,3.7683,0,3.6725,3.6839,3.686,3.6939,3.7066,3.7069,3.7195,3.7225,3.7278,3.7363,3.7342,3.7422,3.7433,3.7517,3.7528,3.7655,3.7677,3.769,3.7692,3.7693,3.7691,3.7726,3.7714,3.7691,3.7689,3.7688,3.7687,0,3.6915,3.6934,3.7072,3.7131,3.7149,3.724,3.7291,3.7368,3.7388,3.7496,3.7522,3.7555,3.7652,3.767,3.7786,3.7793,3.7945,3.7934,3.7924,3.7923,3.8016,3.8007,3.8312,3.8353,3.8093,3.8096,3.8098,0,3.7047,3.7134,3.7202,3.7257,3.7294,3.7383,3.7438,3.7444,3.7503,3.7583,3.765,3.7745,3.7821,3.7978,3.8013,3.8101,3.8093,3.8194,3.8106,3.8105,3.8096,3.8091,3.81,3.8211,3.8214,3.8216,3.8218,0,3.7279,3.7284,3.7364,3.7448,3.7514,3.7581,3.7644,3.769,3.7704,3.7772,3.7871,3.793,3.8047,3.8142,3.823,3.8266,3.8246,3.8245,3.8271,3.8274,3.8265,3.8272,3.7971,3.8238,3.8236,3.8235,3.8234,3.8233,3.7445,3.7521,3.7581,3.7671,3.7718,3.7777,3.7852,3.7881,3.7963,3.8058,3.8056,3.8165,3.8227,3.8342,3.8384,3.847,3.8438,3.8476,3.8486,3.8496,3.8505,3.825,3.8486,3.8485,3.8485,3.8484,3.8484,0,3.7677,3.7714,3.7796,3.7884,3.7956,3.7927,3.7996,3.8057,3.8153,3.8211,3.8286,3.84,3.8491,3.8533,3.8623,3.8684,3.8677,3.8708,3.8704,3.8713,3.8528,3.8496,3.8712,3.8712,3.8712,3.8712,3.8712,3.8712,3.7807,3.7933,3.7945,3.8095,3.8131,3.8236,3.8277,3.8332,3.8378,3.8506,3.8581,3.8607,3.8659,3.8753,3.8836,3.8846,3.8881,3.8916,3.8922,3.8749,3.8726,3.8704,3.8674,3.8924,3.8924,3.91,3.9102,3.9103]},{"header":{"parameterUnit":"m.s-1","parameterCategory":1,"la1":30.2991,"la2":30.254,"lo1":-89.0895,"lo2":-89.0444,"dy":0.0017,"dx":0.0017,"nx":28,"ny":28,"refTime":"2025-07-09T21:00:00:Z","depth":0,"parameterNumber":3,"parameterNumberName":"V-component_of_WINDS"},"data":[0,0,0,0,0,0,0,0,0,0,0,0,0,0,0,0,0,0,0,0,0,0,0,0,0,0,0,0,0,0,0,0,0,0,0,0,0,0,0,0,0,0,0,0,0,0,0,0,0,0,0,0,0,0,0,0,0,0,-1.9136,-1.9137,0,-1.9191,-1.9192,-1.9192,-1.9207,-1.9207,-1.9206,-1.9206,-1.9259,-1.9261,-1.9263,0,0,0,0,0,0,0,0,0,0,0,0,0,-1.9041,-1.9042,-1.9136,-1.9137,-1.9137,-1.9191,-1.9192,-1.9192,-1.9207,-1.9207,-1.9206,-1.9206,-1.9259,-1.9261,-1.9263,0,0,0,0,0,0,0,0,0,0,0,0,0,-1.9087,-1.9043,-1.9136,-1.9151,-1.9153,-1.9191,-1.9192,-1.9193,-1.9207,-1.9207,-1.9206,-1.9206,-1.9258,-1.9261,-1.9263,-1.9289,0,0,-1.9271,-1.9272,0,0,0,0,0,0,0,0,-1.9085,-1.9091,-1.9148,-1.915,-1.9153,-1.9192,-1.9178,-1.9225,-1.9207,-1.9187,-1.9206,-1.9206,-1.9237,-1.9241,-1.9253,-1.9291,-1.9294,-1.9271,-1.9273,-1.9274,-1.9275,0,0,0,0,0,0,0,-1.9082,-1.9089,-1.9158,-1.9149,-1.9152,-1.9154,-1.9161,-1.9187,-1.9214,-1.9188,-1.919,-1.9196,-1.9238,-1.925,-1.9254,-1.9294,-1.9271,-1.9274,-1.9275,-1.9276,-1.9355,-1.9356,0,0,0,0,0,0,-1.9076,-1.9086,-1.9156,-1.9159,-1.9117,-1.9157,-1.9163,-1.918,-1.9214,-1.9218,-1.9196,-1.9197,-1.9246,-1.9251,-1.9256,-1.9287,-1.9274,-1.9276,-1.9278,-1.9355,-1.9356,-1.9356,0,0,0,0,0,0,-1.9074,-1.9082,-1.9154,-1.9123,-1.9132,-1.9159,-1.9177,-1.9181,-1.9193,-1.922,-1.9224,-1.9204,-1.9246,-1.9252,-1.928,-1.9289,-1.9278,-1.928,-1.9354,-1.9355,-1.9356,-1.9351,0,0,0,0,0,0,-1.9071,-1.9081,-1.9092,-1.9123,-1.9134,-1.9178,-1.9177,-1.9182,-1.9198,-1.9198,-1.9228,-1.9232,-1.9246,-1.9277,-1.9283,-1.9293,-1.9282,-1.9354,-1.9355,-1.9356,-1.935,-1.9351,-1.9352,0,0,0,0,0,-1.9068,-1.9088,-1.9093,-1.9101,-1.9148,-1.9179,-1.9185,-1.9201,-1.9198,-1.9209,-1.9226,-1.9231,-1.9288,-1.9279,-1.9287,-1.9297,-1.9353,-1.9354,-1.9356,-1.935,-1.9351,-1.9352,0,0,0,0,0,0,-1.9056,-1.9092,-1.9098,-1.9129,-1.9151,-1.9181,-1.9195,-1.9202,-1.9224,-1.9224,-1.9242,-1.9249,-1.9275,-1.9289,-1.9279,-1.9323,-1.932,-1.9323,-1.9313,-1.9315,-1.9316,-1.9311,-1.9284,0,0,0,0,0,-1.9057,-1.908,-1.911,-1.9135,-1.9146,-1.9168,-1.9182,-1.9193,-1.9216,-1.9225,-1.9244,-1.9265,-1.9288,-1.9302,-1.9324,-1.9352,-1.9358,-1.9363,-1.9364,-1.9365,-1.9367,-1.9382,-1.9384,-1.936,-1.936,-1.936,0,0,-1.906,-1.9082,-1.9096,-1.9133,-1.9151,-1.9173,-1.9176,-1.92,-1.9216,-1.9228,-1.9256,-1.9271,-1.9296,-1.9324,-1.9337,-1.9336,-1.9375,-1.9367,-1.9367,-1.9369,-1.9383,-1.9386,-1.9388,-1.9361,-1.9361,-1.9361,0,0,-1.9075,-1.9095,-1.9118,-1.9136,-1.9164,-1.9179,-1.9184,-1.9214,-1.9224,-1.9253,-1.9262,-1.9281,-1.932,-1.9337,-1.9351,-1.9373,-1.9378,-1.938,-1.9384,-1.9399,-1.9401,-1.9402,-1.9409,-1.9412,-1.9381,-1.9381,-1.9381,0,-1.9075,-1.911,-1.9128,-1.9151,-1.9167,-1.918,-1.9202,-1.9219,-1.9252,-1.9262,-1.9261,-1.9309,-1.9327,-1.9359,-1.9364,-1.9375,-1.9381,-1.9376,-1.9399,-1.9401,-1.9403,-1.941,-1.9412,-1.9381,-1.9381,-1.9381,-1.9381,0,-1.9107,-1.9131,-1.9145,-1.9178,-1.9195,-1.9218,-1.9238,-1.9254,-1.9263,-1.9277,-1.9306,-1.9327,-1.9354,-1.9362,-1.9371,-1.9395,-1.9394,-1.9396,-1.9393,-1.9405,-1.9411,-1.9414,-1.9381,-1.9381,-1.9381,-1.9381,0,0,-1.9116,-1.9159,-1.9164,-1.9179,-1.921,-1.9229,-1.9251,-1.9278,-1.929,-1.9313,-1.9331,-1.9364,-1.9366,-1.9381,-1.9392,-1.9405,-1.942,-1.9405,-1.9406,-1.9406,-1.9447,-1.9445,-1.9447,-1.9424,-1.9425,-1.9425,-1.9444,0,-1.9135,-1.9177,-1.9194,-1.9228,-1.9249,-1.9262,-1.9282,-1.9303,-1.9317,-1.9337,-1.9352,-1.9375,-1.9376,-1.9385,-1.9399,-1.9415,-1.9428,-1.9414,-1.944,-1.9441,-1.9433,-1.9451,-1.9449,-1.9466,-1.9447,-1.9448,-1.9448,0,-1.9163,-1.9186,-1.9222,-1.9251,-1.9261,-1.9278,-1.9304,-1.9323,-1.9347,-1.9356,-1.9374,-1.9384,-1.9407,-1.9403,-1.9435,-1.9425,-1.9436,-1.9446,-1.9447,-1.945,-1.9445,-1.9453,-1.9472,-1.9474,-1.9452,-1.9452,-1.9452,0,-1.9165,-1.9206,-1.9232,-1.9245,-1.9279,-1.9291,-1.9305,-1.9329,-1.9344,-1.9366,-1.9375,-1.94,-1.9413,-1.9431,-1.9447,-1.9443,-1.9476,-1.9474,-1.9484,-1.9483,-1.949,-1.9489,-1.951,-1.9499,-1.9498,-1.9498,-1.9498,0,-1.9184,-1.9205,-1.9234,-1.925,-1.9274,-1.9293,-1.9315,-1.9331,-1.9351,-1.937,-1.9383,-1.94,-1.942,-1.9439,-1.9452,-1.9476,-1.9482,-1.9489,-1.9492,-1.9488,-1.9487,-1.9495,-1.9494,-1.9499,-1.9499,-1.9499,-1.9499,0,-1.919,-1.921,-1.924,-1.927,-1.9278,-1.9295,-1.932,-1.9336,-1.9351,-1.9374,-1.9381,-1.9404,-1.9427,-1.9446,-1.9476,-1.9484,-1.9509,-1.9512,-1.9501,-1.9502,-1.9511,-1.951,-1.9538,-1.9542,-1.9528,-1.9528,-1.9528,0,-1.9201,-1.9217,-1.925,-1.9264,-1.9278,-1.93,-1.9316,-1.9335,-1.935,-1.9378,-1.939,-1.9415,-1.9436,-1.9472,-1.9491,-1.9514,-1.9518,-1.9526,-1.9521,-1.9516,-1.9517,-1.9516,-1.9517,-1.9526,-1.9526,-1.9526,-1.9526,0,-1.9216,-1.9226,-1.9248,-1.9274,-1.9292,-1.9313,-1.9334,-1.9344,-1.9367,-1.9384,-1.9408,-1.9424,-1.9455,-1.9479,-1.9504,-1.9518,-1.9526,-1.9528,-1.9531,-1.9527,-1.9519,-1.9523,-1.9502,-1.9527,-1.9527,-1.9527,-1.9527,-1.9527,-1.9225,-1.924,-1.9265,-1.9289,-1.9307,-1.9327,-1.9343,-1.936,-1.9382,-1.9409,-1.9419,-1.9444,-1.9466,-1.9501,-1.9515,-1.9534,-1.9535,-1.954,-1.9541,-1.9541,-1.9541,-1.9517,-1.9539,-1.9539,-1.9539,-1.9539,-1.9539,0,-1.924,-1.9257,-1.928,-1.9309,-1.9328,-1.9335,-1.9358,-1.9373,-1.9396,-1.9417,-1.9437,-1.9465,-1.9488,-1.9509,-1.9533,-1.9544,-1.9548,-1.9549,-1.9548,-1.9551,-1.9539,-1.9534,-1.9546,-1.9546,-1.9546,-1.9546,-1.9546,-1.9546,-1.9251,-1.9277,-1.9289,-1.9324,-1.934,-1.9366,-1.9379,-1.9396,-1.9413,-1.9444,-1.9464,-1.9477,-1.9498,-1.9524,-1.9545,-1.955,-1.9558,-1.9559,-1.9565,-1.9553,-1.9552,-1.9551,-1.9546,-1.956,-1.956,-1.9575,-1.9575,-1.9575]}]]